Weather History for KEUL - October, 2013

Change the Weather History Date:

Sunday, October 6, 2013

  Actual Average (KBOI) Record (KBOI)
Temperature  
Mean Temperature 52 °F 57 °F  
Max Temperature 71 °F 70 °F 87 °F (1988)
Min Temperature 32 °F 44 °F 26 °F (1941)
Degree Days  
Heating Degree Days 14 9  
Month to date heating degree days 47  
Since 1 July heating degree days 168  
Cooling Degree Days 0 1  
Month to date cooling degree days 6  
Year to date cooling degree days 940  
Growing Degree Days 2 (Base 50)    
Moisture  
Dew Point 30 °F    
Average Humidity 48    
Maximum Humidity 65    
Minimum Humidity 27    
Precipitation  
Precipitation 0.00 in 0.02 in 0.61 in (1920)
Month to date precipitation 0.12  
Year to date precipitation 8.20  
Snow  
Snow 0.00 in 0.00 in 0.00 in ()
Month to date snowfall 0.0  
Since 1 July snowfall 0.0  
Snow Depth -    
Sea Level Pressure  
Sea Level Pressure 30.22 in    
Wind  
Wind Speed 4 mph (ESE)    
Max Wind Speed 13 mph    
Max Gust Speed -    
Visibility 10 miles    
Events      
T = Trace of Precipitation, MM = Missing Value Source: NWS Daily Summary

Daily Weather History Graph

Daily Weather History Graph

Search for Another Location

Airport or City:

Trip Planner

Search our weather history database for the weather conditions in past years. The results will help you decide how hot, cold, wet, or windy it might be!

Date:

Astronomy

Oct. 06, 2013 Rise Set
Actual Time 7:50 AM MDT 7:18 PM MDT
Civil Twilight 7:21 AM MDT 7:46 PM MDT
Nautical Twilight 6:48 AM MDT 8:19 PM MDT
Astronomical Twilight 6:14 AM MDT 8:53 PM MDT
Moon 9:44 AM MDT (10/6) 8:15 PM MDT (10/6)
Length of Visible Light 12h 24m
Length of Day
11h 27m
Waxing Crescent, 4% of the Moon is Illuminated
Oct 6
Waxing Crescent
Oct 11
First Quarter
Oct 18
Full
Oct 26
Last Quarter
Nov 3
New

Hourly Weather History & Observations

Time (MDT) Temp. Windchill Dew Point Humidity Pressure Visibility Wind Dir Wind Speed Gust Speed Precip Events Conditions
12:15 AM 41.0 °F 37.1 °F 26.6 °F 57% 30.36 in 10.0 mi SE 5.8 mph - N/A   Clear
12:35 AM 41.0 °F 39.0 °F 26.6 °F 57% 30.35 in 10.0 mi SE 3.5 mph - N/A   Clear
12:55 AM 41.0 °F 37.1 °F 24.8 °F 53% 30.35 in 10.0 mi SE 5.8 mph - N/A   Clear
1:15 AM 37.4 °F 32.8 °F 24.8 °F 60% 30.35 in 10.0 mi East 5.8 mph - N/A   Clear
1:35 AM 37.4 °F 32.8 °F 24.8 °F 60% 30.35 in 10.0 mi East 5.8 mph - N/A   Clear
1:55 AM 39.2 °F 35.0 °F 24.8 °F 56% 30.35 in 10.0 mi East 5.8 mph - N/A   Clear
2:15 AM 39.2 °F 34.2 °F 24.8 °F 56% 30.35 in 10.0 mi East 6.9 mph - N/A   Clear
2:35 AM 39.2 °F 34.2 °F 24.8 °F 56% 30.35 in 10.0 mi East 6.9 mph - N/A   Clear
2:55 AM 37.4 °F 32.1 °F 24.8 °F 60% 30.35 in 10.0 mi ESE 6.9 mph - N/A   Clear
3:15 AM 37.4 °F 33.8 °F 24.8 °F 60% 30.35 in 10.0 mi SE 4.6 mph - N/A   Clear
3:35 AM 37.4 °F 34.9 °F 24.8 °F 60% 30.34 in 10.0 mi SE 3.5 mph - N/A   Clear
3:55 AM 37.4 °F - 24.8 °F 60% 30.34 in 10.0 mi Calm Calm - N/A   Clear
4:15 AM 35.6 °F - 23.0 °F 60% 30.34 in 10.0 mi Calm Calm - N/A   Clear
4:35 AM 35.6 °F - 23.0 °F 60% 30.33 in 10.0 mi Calm Calm - N/A   Clear
4:55 AM 33.8 °F - 21.2 °F 60% 30.33 in 10.0 mi Calm Calm - N/A   Clear
5:15 AM 33.8 °F 30.8 °F 23.0 °F 65% 30.32 in 10.0 mi East 3.5 mph - N/A   Clear
5:35 AM 33.8 °F - 23.0 °F 65% 30.32 in 10.0 mi Calm Calm - N/A   Clear
5:55 AM 33.8 °F - 21.2 °F 60% 30.32 in 10.0 mi Calm Calm - N/A   Clear
6:15 AM 33.8 °F - 21.2 °F 60% 30.33 in 10.0 mi Calm Calm - N/A   Clear
6:35 AM 33.8 °F - 21.2 °F 60% 30.32 in 10.0 mi Calm Calm - N/A   Clear
6:55 AM 33.8 °F - 21.2 °F 60% 30.32 in 10.0 mi Calm Calm - N/A   Clear
7:15 AM 32.0 °F - 21.2 °F 64% 30.32 in 10.0 mi Calm Calm - N/A   Clear
7:55 AM 32.0 °F - 21.2 °F 64% 30.32 in 10.0 mi Calm Calm - N/A   Clear
8:15 AM 32.0 °F - 21.2 °F 64% 30.32 in 10.0 mi Calm Calm - N/A   Clear
8:35 AM 33.8 °F 29.6 °F 23.0 °F 65% 30.33 in 10.0 mi NNE 4.6 mph - N/A   Clear
8:55 AM 37.4 °F 34.9 °F 24.8 °F 60% 30.33 in 10.0 mi East 3.5 mph - N/A   Clear
9:15 AM 39.2 °F - 26.6 °F 61% 30.33 in 10.0 mi Calm Calm - N/A   Clear
9:35 AM 42.8 °F 38.0 °F 26.6 °F 53% 30.33 in 10.0 mi SE 8.1 mph - N/A   Clear
9:55 AM 44.6 °F 40.7 °F 26.6 °F 49% 30.33 in 10.0 mi SE 6.9 mph - N/A   Clear
10:15 AM 46.4 °F 43.5 °F 28.4 °F 50% 30.33 in 10.0 mi South 5.8 mph - N/A   Clear
10:35 AM 51.8 °F - 28.4 °F 41% 30.32 in 10.0 mi SSE 12.7 mph - N/A   Clear
10:55 AM 51.8 °F - 30.2 °F 44% 30.32 in 10.0 mi SSE 9.2 mph - N/A   Clear
11:15 AM 53.6 °F - 30.2 °F 41% 30.32 in 10.0 mi SSE 11.5 mph - N/A   Clear
11:35 AM 55.4 °F - 30.2 °F 38% 30.31 in 10.0 mi South 10.4 mph - N/A   Clear
11:55 AM 57.2 °F - 30.2 °F 36% 30.30 in 10.0 mi SSE 8.1 mph - N/A   Clear
12:15 PM 57.2 °F - 30.2 °F 36% 30.29 in 10.0 mi SSE 9.2 mph - N/A   Clear
12:35 PM 60.8 °F - 32.0 °F 34% 30.28 in 10.0 mi ESE 5.8 mph - N/A   Clear
12:55 PM 60.8 °F - 32.0 °F 34% 30.27 in 10.0 mi SE 8.1 mph - N/A   Clear
1:15 PM 62.6 °F - 33.8 °F 34% 30.25 in 10.0 mi East 8.1 mph - N/A   Clear
1:35 PM 64.4 °F - 33.8 °F 32% 30.24 in 10.0 mi SSE 5.8 mph - N/A   Clear
2:15 PM 66.2 °F - 33.8 °F 30% 30.21 in 10.0 mi Calm Calm - N/A   Clear
2:35 PM 66.2 °F - 35.6 °F 32% 30.20 in 10.0 mi WSW 4.6 mph - N/A   Clear
2:55 PM 66.2 °F - 35.6 °F 32% 30.19 in 10.0 mi SSW 3.5 mph - N/A   Clear
3:15 PM 68.0 °F - 35.6 °F 30% 30.18 in 3.0 mi WNW 4.6 mph - N/A   Clear
3:35 PM 68.0 °F - 35.6 °F 30% 30.17 in 10.0 mi North 5.8 mph - N/A   Clear
3:55 PM 69.8 °F - 35.6 °F 28% 30.15 in 10.0 mi Calm Calm - N/A   Clear
4:15 PM 69.8 °F - 37.4 °F 31% 30.14 in 10.0 mi NNW 6.9 mph - N/A   Clear
4:35 PM 69.8 °F - 35.6 °F 28% 30.13 in 10.0 mi NNW 6.9 mph - N/A   Clear
4:55 PM 69.8 °F - 35.6 °F 28% 30.12 in 10.0 mi North 3.5 mph - N/A   Clear
5:15 PM 71.6 °F - 35.6 °F 27% 30.11 in 10.0 mi NNW 4.6 mph - N/A   Clear
5:35 PM 71.6 °F - 35.6 °F 27% 30.10 in 10.0 mi North 6.9 mph - N/A   Clear
5:55 PM 71.6 °F - 35.6 °F 27% 30.09 in 10.0 mi NNE 4.6 mph - N/A   Clear
6:15 PM 71.6 °F - 35.6 °F 27% 30.08 in 10.0 mi North 4.6 mph - N/A   Clear
6:35 PM 69.8 °F - 35.6 °F 28% 30.07 in 10.0 mi NNE 4.6 mph - N/A   Clear
6:55 PM 68.0 °F - 35.6 °F 30% 30.06 in 10.0 mi NE 5.8 mph - N/A   Clear
7:15 PM 64.4 °F - 37.4 °F 37% 30.05 in 10.0 mi ENE 3.5 mph - N/A   Clear
7:35 PM 60.8 °F - 35.6 °F 39% 30.05 in 10.0 mi NE 5.8 mph - N/A   Clear
7:55 PM 59.0 °F - 33.8 °F 39% 30.04 in 10.0 mi NNE 5.8 mph - N/A   Clear
8:15 PM 59.0 °F - 35.6 °F 42% 30.04 in 10.0 mi NE 3.5 mph - N/A   Clear
8:35 PM 57.2 °F - 35.6 °F 44% 30.04 in 10.0 mi Calm Calm - N/A   Clear
8:55 PM 53.6 °F - 35.6 °F 51% 30.04 in 10.0 mi NE 4.6 mph - N/A   Clear
9:15 PM 53.6 °F - 35.6 °F 51% 30.04 in 10.0 mi WSW 5.8 mph - N/A   Clear
9:35 PM 53.6 °F - 35.6 °F 51% 30.04 in 10.0 mi West 4.6 mph - N/A   Clear
9:55 PM 51.8 °F - 33.8 °F 50% 30.03 in 10.0 mi Calm Calm - N/A   Clear
10:15 PM 50.0 °F - 35.6 °F 58% 30.04 in 10.0 mi SW 4.6 mph - N/A   Clear
10:35 PM 48.2 °F - 33.8 °F 58% 30.04 in 10.0 mi SSW 3.5 mph - N/A   Clear
10:55 PM 48.2 °F - 33.8 °F 58% 30.04 in 10.0 mi SSW 3.5 mph - N/A   Clear
11:15 PM 46.4 °F - 33.8 °F 62% 30.03 in 10.0 mi Calm Calm - N/A   Clear
11:35 PM 44.6 °F 41.4 °F 32.0 °F 61% 30.03 in 10.0 mi SSE 5.8 mph - N/A   Clear
11:55 PM 46.4 °F 42.9 °F 33.8 °F 62% 30.03 in 10.0 mi SSE 6.9 mph - N/A   Clear